User: anonymous   Login
Location: Unspecified
(0.0000°N, 0.0000°E)
Time: 21:56:43
(UTC+00:00)
Language:

TBA - TO BE ASSIGNED - Orbit

View from above orbital plane
View from above orbital plane
View from above satellite
View from above satellite

Ground track
Ground track

The orbit is defined by the following mean orbital elements,

1 68177U          26145.43780252 +.00000000 +00000-0 -51605-2 0 00001
2 68177  53.1576 269.5711 0008007 308.8647  51.1643 15.41586355    03
Epoch (UTC): 25 May 2026 10:30:26
Eccentricity: 0.0008007
inclination: 53.1576°
perigee height: 436 km
apogee height: 447 km
right ascension of ascending node: 269.5711°
argument of perigee: 308.8647°
revolutions per day: 15.41586355
mean anomaly at epoch: 51.1643°

The dashed part of the orbit path shows where the satellite is in the earth's shadow,  

DLR